Regional Weather Roundup
Issued by NWS Midland/Odessa, TX

Skip options and go directly to product.
Home | Oldest Version | Previous Version | Current Version | All | Text Only | Save Text | Print | Product List | Glossary Off

Skip product version selection by date and time.   

487
ASUS44 KMAF 281810
RWRMAF
MIDLAND AREA WEATHER ROUNDUP
NATIONAL WEATHER SERVICE MIDLAND TX
100 PM CDT MON JUL 28 2014

...IN SOUTHWEST TEXAS AND SOUTHEAST NEW MEXICO...

CITY           SKY/WX    TMP DP  RH WIND       PRES   REMARKS
ALPINE         PTSUNNY   84  59  42 N14       30.36S
ANDREWS        FAIR      90  58  34 NE13G20   30.25S
ARTESIA        CLOUDY    84  57  39 N14G20    30.28S
BIG SPRING     MOSUNNY   94  60  32 N6        30.23F
CARLSBAD       CLOUDY    90  55  30 N17       30.25F
DRYDEN           N/A     99  61  28 SE12G20   30.15F
FORT STOCKTON  SUNNY     93  53  25 SE9G22    30.21S
GUAD PASS      MOSUNNY   81  55  40 NE24G35     N/A
HOBBS          MOSUNNY   88  57  35 N14G21    30.29F
MARFA          CLOUDY    73  63  68 N6        30.35F
MIDLAND AIRPK  SUNNY     94  58  30 CALM      30.22F
MIDLAND INTL   SUNNY     92  59  33 VRB6      30.21F
ODESSA         SUNNY     94  57  28 MISG      30.23F
PECOS          SUNNY     96  56  26 NE12G20   30.18F
PRESIDIO       FAIR      96  57  27 NE8       30.15F
SEMINOLE       SUNNY     89  57  33 NE13G18   30.28S HAZE
SNYDER         MOSUNNY   86  67  53 NE16G23   30.25S
WINK           MOSUNNY   95  56  26 MISG      30.19F
$$
...OTHER STATIONS IN TEXAS...

CITY           SKY/WX    TMP DP  RH WIND       PRES   REMARKS
ABILENE        MOSUNNY   95  64  35 NW9       30.18F
AMARILLO       CLOUDY    69  63  81 SE16      30.37R
AUSTIN         SUNNY     93  69  45 S9        30.11F
BROWNSVILLE    MOSUNNY   95  73  48 SE14      30.08F HX 104
CORPUS CHRISTI PTSUNNY   94  73  50 SE14      30.09F HX 103
DALLAS FTW     PTSUNNY   95  68  41 N16       30.13F
DEL RIO        SUNNY     89  71  55 E13G18    30.11F
EL PASO        CLOUDY    83  59  44 N12       30.26S
HOUSTON INT    MOSUNNY   92  72  51 VRB5      30.11F
LUBBOCK        MOSUNNY   81  63  54 NE22G30   30.32S
SAN ANGELO     SUNNY     96  61  31 NE8       30.17F
SAN ANTONIO    MOSUNNY   88  73  61 SE6       30.13F
WACO           SUNNY     95  69  42 VRB3      30.11F HX 100
WICHITA FALLS  NOT AVBL
$$
...OTHER LOCATIONS IN NEW MEXICO...

CITY           SKY/WX    TMP DP  RH WIND       PRES   REMARKS
ALAMAGORDO     CLOUDY    77  61  57 NW7       30.31S
ALBUQUERQUE    PTSUNNY   78  54  43 S9        30.40F
CANNON AFB     MOSUNNY   78  62  58 E15G21    30.37F
CLOVIS         NOT AVBL
HOLLOMAN AFB   CLOUDY    77  66  68 NW12      30.28F
ROSWELL        CLOUDY    84  58  40 NE10      30.29S
RUIDOSO        CLOUDY    68  54  60 S6        30.50F
SANTA FE       MOSUNNY   75  55  49 S8        30.45F
TRUTH OR CONSE CLOUDY    76  43  30 VRB3      30.35F
TUCUMCARI      PTSUNNY   79  60  52 SE6       30.36F
$$

USA.gov is the U.S. government's official web portal to all federal, state and local government web resources and services.